Weather History for KPAM - February, 2014

Change the Weather History Date:

Monday, February 10, 2014

  Actual Average Record
Temperature  
Mean Temperature 54 °F -  
Max Temperature 66 °F 62 °F 75 °F (1999)
Min Temperature 42 °F 45 °F 35 °F (2006)
Degree Days  
Heating Degree Days 11    
Growing Degree Days 4 (Base 50)    
Moisture  
Dew Point 40 °F    
Average Humidity 68    
Maximum Humidity 71    
Minimum Humidity 51    
Precipitation  
Precipitation 0.00 in - - ()
Sea Level Pressure  
Sea Level Pressure 30.11 in    
Wind  
Wind Speed 1 mph (SSE)    
Max Wind Speed 10 mph    
Max Gust Speed -    
Visibility 6 miles    
Events      
Averages and records for this station are not official NWS values.
T = Trace of Precipitation, MM = Missing Value Source: NWS Daily Summary

Daily Weather History Graph

Daily Weather History Graph

Search for Another Location

Airport or City:

Trip Planner

Search our weather history database for the weather conditions in past years. The results will help you decide how hot, cold, wet, or windy it might be!

Date:

Astronomy

Feb. 10, 2014 Rise Set
Actual Time 6:26 AM CST 5:27 PM CST
Civil Twilight 6:01 AM CST 5:51 PM CST
Nautical Twilight 5:33 AM CST 6:20 PM CST
Astronomical Twilight 5:05 AM CST 6:48 PM CST
Moon 2:02 PM CST (2/10) 3:12 AM CST (2/10)
Length of Visible Light 11h 49m
Length of Day
11h 00m
Waxing Gibbous, 85% of the Moon is Illuminated
Feb 10
Waxing Gibbous
Feb 14
Full
Feb 22
Last Quarter
Mar 1
New
Mar 8
First Quarter

Hourly Weather History & Observations

Time (CST) Temp. Windchill Dew Point Humidity Pressure Visibility Wind Dir Wind Speed Gust Speed Precip Events Conditions
12:03 AM 48.2 °F - 39.2 °F 71% 30.12 in 1.5 mi Calm Calm - N/A   Haze
12:08 AM 48.2 °F - 39.2 °F 71% 30.12 in 1.5 mi Calm Calm - N/A   Haze
12:13 AM 48.2 °F - 39.2 °F 71% 30.12 in 1.2 mi Calm Calm - N/A   Haze
12:18 AM 48.2 °F - 39.2 °F 71% 30.12 in 1.0 mi Calm Calm - N/A   Haze
12:23 AM 48.2 °F - 39.2 °F 71% 30.12 in 1.8 mi Calm Calm - N/A   Haze
12:28 AM 48.2 °F - 39.2 °F 71% 30.12 in 8.0 mi Calm Calm - N/A   Clear
12:38 AM 46.4 °F - 37.4 °F 71% 30.12 in 10.0 mi Calm Calm - N/A   Clear
12:48 AM 46.4 °F - 37.4 °F 71% 30.12 in 5.0 mi Calm Calm - N/A   Haze
12:53 AM 46.4 °F - 37.4 °F 71% 30.12 in 3.0 mi Calm Calm - N/A   Haze
12:58 AM 46.9 °F - 37.8 °F 70% 30.13 in 5.0 mi Calm Calm - N/A   Haze
1:03 AM 46.4 °F - 37.4 °F 71% 30.11 in 10.0 mi Calm Calm - N/A   Clear
1:33 AM 46.4 °F - 37.4 °F 71% 30.11 in 5.0 mi North 1.2 mph - N/A   Haze
1:43 AM 44.6 °F - 35.6 °F 71% 30.12 in 10.0 mi Calm Calm - N/A   Clear
1:48 AM 44.6 °F - 35.6 °F 71% 30.11 in 2.5 mi Calm Calm - N/A   Haze
1:53 AM 46.4 °F - 35.6 °F 66% 30.11 in 1.2 mi Calm Calm - N/A   Haze
1:58 AM 46.4 °F - 37.4 °F 71% 30.13 in 1.5 mi Calm Calm - N/A   Haze
2:03 AM 46.4 °F - 37.4 °F 71% 30.11 in 4.0 mi Calm Calm - N/A   Haze
2:08 AM 46.4 °F - 37.4 °F 71% 30.11 in 4.0 mi Calm Calm - N/A   Haze
2:13 AM 46.4 °F - 37.4 °F 71% 30.11 in 2.5 mi Calm Calm - N/A   Haze
2:18 AM 46.4 °F - 37.4 °F 71% 30.11 in 3.0 mi Calm Calm - N/A   Haze
2:23 AM 46.4 °F - 37.4 °F 71% 30.10 in 10.0 mi Calm Calm - N/A   Clear
2:38 AM 46.4 °F 45.2 °F 37.4 °F 71% 30.10 in 7.0 mi ESE 3.5 mph - N/A   Clear
2:43 AM 44.6 °F - 35.6 °F 71% 30.10 in 6.0 mi ESE 2.3 mph - N/A   Haze
2:53 AM 44.6 °F - 35.6 °F 71% 30.10 in 8.0 mi East 1.2 mph - N/A   Clear
2:58 AM 45.5 °F - 36.3 °F 70% 30.11 in 10.0 mi East 1.2 mph - N/A   Clear
3:13 AM 44.6 °F - 35.6 °F 71% 30.10 in 8.0 mi North 1.2 mph - N/A   Clear
3:28 AM 44.6 °F - 35.6 °F 71% 30.10 in 5.0 mi Calm Calm - N/A   Haze
3:33 AM 44.6 °F - 35.6 °F 71% 30.10 in 3.0 mi Calm Calm - N/A   Haze
3:38 AM 44.6 °F - 35.6 °F 71% 30.10 in 3.0 mi Calm Calm - N/A   Haze
3:43 AM 44.6 °F - 35.6 °F 71% 30.10 in 8.0 mi Calm Calm - N/A   Clear
3:58 AM 45.7 °F - 36.5 °F 70% 30.11 in 9.0 mi Calm Calm - N/A   Clear
4:03 AM 46.4 °F - 35.6 °F 66% 30.10 in 10.0 mi Calm Calm - N/A   Clear
4:23 AM 46.4 °F - 35.6 °F 66% 30.10 in 2.5 mi Calm Calm - N/A   Haze
4:28 AM 46.4 °F - 35.6 °F 66% 30.10 in 1.0 mi Calm Calm - N/A   Haze
4:33 AM 44.6 °F - 35.6 °F 71% 30.10 in 1.0 mi Calm Calm - N/A   Haze
4:38 AM 44.6 °F - 35.6 °F 71% 30.10 in 1.5 mi Calm Calm - N/A   Haze
4:43 AM 44.6 °F - 35.6 °F 71% 30.10 in 1.2 mi Calm Calm - N/A   Haze
4:48 AM 44.6 °F - 35.6 °F 71% 30.11 in 1.5 mi Calm Calm - N/A   Haze
4:58 AM 45.5 °F - 36.0 °F 69% 30.12 in 1.0 mi Calm Calm - N/A   Haze
5:03 AM 44.6 °F - 35.6 °F 71% 30.11 in 1.2 mi Calm Calm - N/A   Haze
5:08 AM 44.6 °F - 35.6 °F 71% 30.11 in 2.5 mi Calm Calm - N/A   Haze
5:13 AM 44.6 °F - 35.6 °F 71% 30.11 in 2.0 mi Calm Calm - N/A   Haze
5:18 AM 44.6 °F - 35.6 °F 71% 30.11 in 3.0 mi Calm Calm - N/A   Haze
5:23 AM 44.6 °F - 35.6 °F 71% 30.12 in 8.0 mi Calm Calm - N/A   Clear
5:38 AM 44.6 °F - 35.6 °F 71% 30.12 in 10.0 mi Calm Calm - N/A   Clear
5:43 AM 44.6 °F - 35.6 °F 71% 30.12 in 8.0 mi East 1.2 mph - N/A   Clear
5:48 AM 44.6 °F - 33.8 °F 66% 30.12 in 5.0 mi Calm Calm - N/A   Haze
5:58 AM 43.9 °F - 34.3 °F 69% 30.14 in 8.0 mi Calm Calm - N/A   Clear
6:03 AM 44.6 °F - 33.8 °F 66% 30.13 in 10.0 mi Calm Calm - N/A   Clear
6:13 AM 42.8 °F - 33.8 °F 70% 30.13 in 8.0 mi Calm Calm - N/A   Clear
6:18 AM 44.6 °F - 33.8 °F 66% 30.13 in 8.0 mi ESE 2.3 mph - N/A   Clear
6:19 AM 44.6 °F - 33.8 °F 66% 30.13 in 3.0 mi ESE 2.3 mph - N/A   Clear
6:40 AM 44.6 °F - 33.8 °F 66% 30.13 in 2.0 mi Calm Calm - N/A   Clear
6:48 AM 44.6 °F - 33.8 °F 66% 30.13 in 2.5 mi Calm Calm - N/A   Clear
6:58 AM 44.1 °F - 34.5 °F 69% 30.14 in 3.0 mi Calm Calm - N/A   Partly Cloudy
7:22 AM 48.2 °F - 37.4 °F 66% 30.13 in 5.0 mi Calm Calm - N/A   Scattered Clouds
7:33 AM 48.2 °F - 39.2 °F 71% 30.14 in 3.0 mi Calm Calm - N/A   Clear
7:59 AM 51.8 °F - 42.8 °F 71% 30.15 in 3.0 mi Calm Calm - N/A   Scattered Clouds
8:27 AM 55.4 °F - 44.6 °F 67% 30.15 in 7.0 mi East 2.3 mph - N/A   Partly Cloudy
8:58 AM 57.9 °F - 46.8 °F 66% 30.17 in 10.0 mi East 4.6 mph - N/A   Scattered Clouds
9:05 AM 59.0 °F - 46.4 °F 63% 30.16 in 10.0 mi NE 3.5 mph - N/A   Partly Cloudy
9:17 AM 60.8 °F - 44.6 °F 55% 30.16 in 10.0 mi East 2.3 mph - N/A   Scattered Clouds
9:58 AM 63.0 °F - 45.7 °F 53% 30.17 in 10.0 mi SSW 2.3 mph - N/A   Partly Cloudy
10:58 AM 66.2 °F - 47.7 °F 51% 30.15 in 10.0 mi Variable 3.5 mph - N/A   Scattered Clouds
11:38 AM 66.2 °F - 50.0 °F 56% 30.13 in 10.0 mi SW 8.1 mph - N/A   Mostly Cloudy
11:43 AM 66.2 °F - 48.2 °F 52% 30.13 in 10.0 mi SW 10.4 mph - N/A   Mostly Cloudy
11:48 AM 66.2 °F - 48.2 °F 52% 30.13 in 10.0 mi SSW 10.4 mph - N/A   Mostly Cloudy
11:54 AM 64.4 °F - 48.2 °F 56% 30.13 in 10.0 mi SSW 9.2 mph - N/A   Scattered Clouds
11:58 AM 64.0 °F - 48.4 °F 57% 30.14 in 10.0 mi SSW 9.2 mph - N/A   Scattered Clouds
11:59 AM 64.4 °F - 48.2 °F 56% 30.13 in 10.0 mi SSW 10.4 mph - N/A   Scattered Clouds
12:58 PM 65.7 °F - 48.9 °F 55% 30.12 in 10.0 mi SSW 10.4 mph - N/A   Partly Cloudy
1:58 PM 65.8 °F - 49.5 °F 55% 30.08 in 10.0 mi SSW 10.4 mph - N/A   Partly Cloudy
2:57 PM 65.1 °F - 49.6 °F 57% 30.08 in 10.0 mi SW 10.4 mph - N/A   Partly Cloudy
3:55 PM 62.6 °F - 50.0 °F 63% 30.07 in 10.0 mi SSW 8.1 mph - N/A   Clear
4:55 PM 60.8 °F - 50.0 °F 68% 30.07 in 10.0 mi South 6.9 mph - N/A   Clear
5:58 PM 57.9 °F - 48.0 °F 70% 30.09 in 10.0 mi South 3.5 mph - 0.00 in   Light Drizzle
6:27 PM 57.2 °F - 46.4 °F 67% 30.09 in 10.0 mi South 4.6 mph - N/A   Clear
6:58 PM 56.7 °F - 47.5 °F 71% 30.09 in 10.0 mi South 6.9 mph - 0.00 in   Clear
7:58 PM 55.8 °F - 46.6 °F 71% 30.11 in 10.0 mi SE 2.3 mph - N/A   Clear
8:58 PM 54.1 °F - 44.4 °F 70% 30.11 in 10.0 mi SSE 1.2 mph - N/A   Clear
9:38 PM 53.6 °F - 42.8 °F 67% 30.11 in 9.0 mi Calm Calm - N/A   Clear
9:43 PM 53.6 °F - 42.8 °F 67% 30.10 in 10.0 mi Calm Calm - N/A   Clear
9:48 PM 53.6 °F - 42.8 °F 67% 30.10 in 9.0 mi Calm Calm - N/A   Clear
9:58 PM 52.7 °F - 42.6 °F 69% 30.11 in 10.0 mi Calm Calm - N/A   Clear
10:18 PM 51.8 °F - 42.8 °F 71% 30.10 in 4.0 mi SE 2.3 mph - N/A   Haze
10:23 PM 51.8 °F - 42.8 °F 71% 30.09 in 1.8 mi ESE 2.3 mph - N/A   Haze
10:28 PM 51.8 °F - 42.8 °F 71% 30.09 in 2.5 mi ESE 2.3 mph - N/A   Haze
10:33 PM 51.8 °F - 42.8 °F 71% 30.09 in 10.0 mi SE 2.3 mph - N/A   Clear
10:38 PM 51.8 °F - 41.0 °F 67% 30.09 in 9.0 mi East 1.2 mph - N/A   Clear
10:53 PM 51.8 °F - 41.0 °F 67% 30.09 in 6.0 mi Calm Calm - N/A   Haze
10:58 PM 51.1 °F - 41.0 °F 68% 30.10 in 8.0 mi NNW 1.2 mph - N/A   Clear
11:03 PM 50.0 °F - 41.0 °F 71% 30.09 in 5.0 mi Calm Calm - N/A   Haze
11:08 PM 50.0 °F - 41.0 °F 71% 30.09 in 4.0 mi Calm Calm - N/A   Haze
11:13 PM 51.8 °F - 41.0 °F 67% 30.09 in 6.0 mi NNW 1.2 mph - N/A   Haze
11:18 PM 51.8 °F - 41.0 °F 67% 30.09 in 5.0 mi Calm Calm - N/A   Haze
11:23 PM 50.0 °F - 41.0 °F 71% 30.08 in 6.0 mi Calm Calm - N/A   Haze
11:28 PM 50.0 °F - 41.0 °F 71% 30.08 in 10.0 mi ESE 2.3 mph - N/A   Clear
11:38 PM 50.0 °F - 41.0 °F 71% 30.08 in 3.0 mi Calm Calm - N/A   Haze
11:43 PM 50.0 °F - 41.0 °F 71% 30.08 in 2.0 mi Calm Calm - N/A   Haze
11:48 PM 50.0 °F - 41.0 °F 71% 30.07 in 3.0 mi Calm Calm - N/A   Haze
11:53 PM 50.0 °F - 41.0 °F 71% 30.07 in 10.0 mi Calm Calm - N/A   Clear
11:58 PM 50.9 °F - 40.8 °F 68% 30.08 in 10.0 mi Calm Calm - N/A   Clear